This is the latest recevied weather packets stored in our database for station/object vk4zu-13. If no packets are shown the sender has not sent any weather packets the latest 10 day(s).
| Time | Temp. | Humidity | Pressure | Rain* | Wind** | Luminosity | Snow |
|---|---|---|---|---|---|---|---|
| 1778216691 | 22.78° C | 29% | 1017.1 hPa | 0 mm | - | 320 W/m² | - |
| 1778216621 | 22.22° C | 28% | 1017.1 hPa | 0 mm | - | 311 W/m² | - |
| 1778216551 | 22.78° C | 27% | 1017.2 hPa | 0 mm | - | 334 W/m² | - |
| 1778216481 | 22.78° C | 27% | 1017.2 hPa | 0 mm | - | 415 W/m² | - |
| 1778216418 | 22.78° C | 30% | 1017.2 hPa | 0 mm | - | 376 W/m² | - |
| 1778216359 | 22.78° C | 28% | 1017.3 hPa | 0 mm | - | 216 W/m² | - |
| 1778216289 | 22.78° C | 26% | 1017.3 hPa | 0 mm | - | 450 W/m² | - |
| 1778216219 | 22.78° C | 26% | 1017.2 hPa | 0 mm | - | 450 W/m² | - |
| 1778216149 | 22.78° C | 26% | 1017.3 hPa | 0 mm | - | 220 W/m² | - |
| 1778216082 | 23.33° C | 28% | 1017.3 hPa | 0 mm | - | 243 W/m² | - |
| 1778216009 | 23.33° C | 27% | 1017.3 hPa | 0 mm | - | 455 W/m² | - |
| 1778215939 | 23.33° C | 28% | 1017.3 hPa | 0 mm | - | 455 W/m² | - |
| 1778215869 | 23.33° C | 29% | 1017.2 hPa | 0 mm | - | 450 W/m² | - |
| 1778215800 | 23.33° C | 26% | 1017.2 hPa | 0 mm | - | 452 W/m² | - |
| 1778215729 | 23.33° C | 26% | 1017.3 hPa | 0 mm | - | 468 W/m² | - |
| 1778215684 | 23.89° C | 26% | 1017.2 hPa | 0 mm | - | 478 W/m² | - |
| 1778215660 | 23.33° C | 28% | 1017.2 hPa | 0 mm | - | 487 W/m² | - |
| 1778215520 | 23.33° C | 30% | 1017.2 hPa | 0 mm | - | 490 W/m² | - |
| 1778215458 | 23.33° C | 30% | 1017.2 hPa | 0 mm | - | 494 W/m² | - |
| 1778215397 | 23.33° C | 30% | 1017.1 hPa | 0 mm | - | 496 W/m² | - |
| 1778215327 | 22.78° C | 28% | 1017.1 hPa | 0 mm | - | 497 W/m² | - |
| 1778215258 | 22.78° C | 31% | 1017.1 hPa | 0 mm | - | 499 W/m² | - |
| 1778215187 | 22.78° C | 29% | 1017.1 hPa | 0 mm | - | 501 W/m² | - |
| 1778215121 | 22.78° C | 28% | 1017.1 hPa | 0 mm | - | 501 W/m² | - |
| 1778215055 | 22.78° C | 30% | 1017 hPa | 0 mm | - | 503 W/m² | - |
* Rain latest hour (hover to see other rain measurements)
** Current wind speed in m/s (hover to see current wind gust speed)